STARLINK-32618, 62045

Orbit data source: Space-Track

STARLINK-32618, 62045 is a payload satellite owned by SpaceX/Seattle (US) in LEO that was launched on Thu, 21 Nov 2024 UTC via an FALCON 9 launch vehicle from the Air Force Eastern Test Range (AFETR). Payload-class satellites include a variety of spacecraft equipped with specific instruments for various scientific and technological missions. These include communications satellites like Starlink; space stations such as the ISS; scientific satellites like the Hubble; Earth observation satellites from companies like Planet Labs, Umbra, and HawkEye 360; GPS; miniature CubeSats for education and research; and military/defense satellites.

Loading next visibility...
Identifier
62045, 2024-216P
Orbit
LEO
Country
Flag of USUS
Related business
Manufacturer
SpaceX/Seattle
Mission
Operational Commercial Communications
Bus & Motor
STARLINK V2M, Unknown motor
Mass
730 kg wet, ~700 kg dry
Launch date (UTC)
2024-11-21 (9 months ago)
Launch vehicle
FALCON 9
Launch site
Air Force Eastern Test Range (AFETR)
Object type
Payload
Rocket body
Debris
Shape & HBR
Box + 2 Pan, 14.5 m
Radar Cross Section
36.964 m², Large (>1 m²)

Expand to show TLE details & history
Last TLE update: 23 hours ago

TLE from 23 hours ago
0 STARLINK-32618
1 62045U 24216P   25241.51978788  .00028422  00000-0  10369-2 0  9998
2 62045  43.0013 261.7771 0001774 267.9399  92.1249 15.27625451 44480
Epoch: 2025-08-29T12:28Z
TLE epoch observation values (Epoch: 2025-08-29T12:28:29.672Z)
Latitude
-0.00007°
Longitude
96.68613°
Altitude
482.734 km
Speed
7.626 km/s
True Right ascension
17h 27m 06s
True Declination
0° 00' 00"
Sunlit
Object was in daylight at epoch
Visualization orbit readout
Latitude
Unknown
Longitude
Unknown
Altitude
Unknown
Speed
Unknown
Apparent Right ascension
Unknown
Apparent Declination
Unknown
Sunlit
N/A
Visualization observer readout
Local Sidereal Time
02:41:56
Azimuth
Unknown
Elevation
Unknown
Doppler factor
Unknown
Orbital elements
Apogee altitude
486.075 km
Perigee altitude
483.641 km
Semi-major axis
6,862.995 km
Eccentricity
0.00018
Inclination
43.0013°
RAAN
261.7771°
Arg. of periapsis
267.9399°
True anomaly
92.14521°
Mean anomaly
92.1249°
Eccentric anomaly
92.13506°
Mean motion
3.81744 °/min
Orbital period
94.3 mins
BSTAR
0.0010369
Loading maneuver chart data...
Computing Atmospheric mass density...
Loading historical data...
Loading historical data...
Loading historical data...
Loading historical data...
Loading historical data...
Loading historical data...
Loading historical data...

Documentation

Showing up to 5 results
|